Wind_Speed
19 20 20 21 21 22 23 24 24 25 25 24 23 23 23 23 23 24 23 23 22 20 18 18 19 17 15 14 13 12 11 11 10 9 9 9 9 10 10 10 10 11 11 12 14 16 17 17 17 16 16 16 16 17 16 16 17 16 16 16 16 16 17 19 20 19 19 20 20 20 19 20 22 22 23 24 24 25 27 28 30 31 32 34 35
17 18 19 19 20 21 22 24 25 26 26 25 24 24 25 25 25 25 24 23 23 21 19 20 20 18 17 16 15 14 13 12 12 10 9 9 9 10 10 10 10 11 11 12 14 16 16 17 17 16 16 16 16 17 17 17 17 18 18 18 18 18 18 20 22 23 22 22 23 23 22 23 24 25 27 28 29 29 29 30 30 31 32 32 34
17 18 18 18 19 20 21 22 24 24 25 25 25 25 26 26 27 26 25 24 23 21 20 21 20 19 18 17 16 15 14 14 13 11 9 9 10 10 10 10 11 13 13 12 13 15 16 17 17 17 17 16 16 18 19 19 19 19 19 20 20 20 20 22 23 24 25 25 25 26 26 26 27 29 30 31 32 33 33 33 33 33 33 34 34
17 17 17 17 18 18 18 19 20 21 22 24 24 25 26 27 27 26 25 24 22 21 22 22 21 19 19 19 18 17 16 15 15 12 10 9 9 9 10 11 13 14 14 13 13 16 18 18 17 17 18 18 18 19 20 20 21 21 21 21 22 22 22 23 24 25 26 26 27 28 28 29 30 32 33 34 35 35 36 36 36 36 37 38 38
17 16 16 16 15 15 15 16 17 18 20 21 23 25 26 26 26 24 24 22 21 21 22 22 21 20 20 21 20 19 18 17 16 14 11 10 9 9 10 12 14 16 15 14 15 17 19 19 18 17 18 19 20 20 21 21 21 21 22 22 22 23 24 25 25 26 27 28 29 29 30 30 32 33 34 35 36 37 38 38 37 39 40 41 41
17 15 14 13 12 12 13 14 15 16 18 19 20 22 23 24 23 22 22 22 21 22 22 23 21 20 22 23 22 20 19 18 18 16 13 11 10 10 11 13 15 17 17 18 20 21 21 20 19 18 19 20 20 21 21 20 20 21 22 22 23 23 25 26 27 28 28 30 31 31 31 32 33 35 37 37 37 38 38 38 38 40 41 41 41
17 15 13 12 11 10 11 11 13 14 16 17 18 19 20 20 20 20 21 21 21 22 22 23 22 22 24 24 23 21 20 19 19 18 16 13 12 12 13 14 16 18 19 21 23 23 22 20 19 20 21 21 21 21 21 20 20 20 21 22 22 23 25 26 27 29 29 31 32 32 32 33 35 37 38 39 40 39 38 37 37 39 41 41 40
16 14 13 11 10 9 10 10 10 12 13 14 15 16 18 18 18 19 19 20 21 22 23 23 23 24 25 25 24 22 21 20 20 20 18 16 16 15 14 15 17 19 21 24 25 23 21 20 21 23 24 22 20 21 21 20 20 20 21 22 23 23 25 26 27 29 30 31 32 33 33 34 35 37 39 40 40 40 39 38 38 40 41 40 38
15 15 14 12 10 11 11 11 11 12 13 13 13 14 15 17 18 18 18 19 21 23 24 24 25 25 25 26 24 22 22 21 21 21 20 19 19 18 16 16 17 20 23 25 26 24 23 23 24 27 26 22 18 19 20 20 21 21 22 23 24 25 25 26 28 29 29 30 32 33 33 34 36 37 38 39 38 38 39 40 41 41 42 40 38
14 16 15 12 12 13 13 13 14 14 14 15 15 15 14 15 17 18 18 19 21 23 25 26 26 25 26 26 25 23 23 22 22 23 22 22 22 22 20 18 17 19 23 27 29 28 27 27 28 28 25 19 16 18 20 21 22 23 24 24 25 26 27 28 29 30 30 30 31 32 33 34 36 38 38 38 38 39 40 42 43 44 44 43 42
15 15 15 14 15 16 16 16 16 16 16 17 17 18 17 17 16 16 18 20 22 24 25 26 26 26 26 27 26 24 24 23 24 24 23 24 25 24 24 23 21 21 24 29 31 31 30 30 30 27 20 16 17 19 20 22 23 24 24 24 25 26 28 29 31 31 32 33 33 34 35 36 37 38 38 39 40 41 42 44 45 46 47 48 47
16 16 16 16 18 19 19 19 19 19 19 19 19 20 21 20 18 17 17 19 21 24 25 26 26 26 27 27 26 25 25 25 26 25 24 25 27 27 27 27 25 24 27 31 34 35 32 30 29 25 19 19 21 21 22 23 24 25 25 25 25 27 29 31 32 34 35 36 36 36 37 38 38 39 40 41 42 43 45 47 48 50 51 51 50
18 18 18 19 20 20 22 23 23 22 22 22 22 23 23 22 20 20 19 19 20 21 23 24 25 25 27 27 26 26 27 27 27 26 25 27 29 29 29 29 28 27 30 33 36 37 33 28 28 27 23 23 24 23 24 25 25 26 26 26 27 29 31 33 35 36 37 38 39 38 39 40 39 41 43 44 44 46 48 49 51 53 53 52 50
21 21 23 23 23 22 23 25 25 25 25 25 25 25 24 23 23 23 22 22 22 21 22 23 24 24 26 27 27 28 29 29 28 27 27 28 31 32 31 30 28 29 31 33 36 37 32 30 32 32 28 26 26 27 28 28 27 28 28 28 29 31 34 36 37 38 39 40 40 40 41 42 42 43 45 46 47 49 51 52 53 54 53 50 48
24 24 25 26 26 25 26 26 26 27 27 28 28 27 27 26 25 25 25 25 25 23 23 23 23 24 25 27 29 30 31 31 30 28 28 30 32 33 33 31 29 30 32 33 36 36 32 30 32 32 31 30 29 30 31 30 30 30 29 30 31 33 35 37 39 40 40 40 41 41 43 44 45 46 47 48 50 51 52 53 54 53 51 48 46
28 27 27 27 26 25 25 26 26 26 28 30 30 29 29 29 28 28 27 28 28 27 26 25 24 25 26 28 29 30 32 33 32 31 31 32 33 34 35 33 30 30 32 34 37 35 32 31 32 31 31 32 31 30 32 33 33 33 32 32 33 35 37 38 40 40 39 39 41 43 45 45 46 48 49 50 51 51 52 52 52 50 48 46 45
31 30 29 27 26 25 25 25 25 26 28 30 31 31 31 31 31 31 30 30 30 30 29 28 27 26 27 29 29 30 33 34 34 34 34 34 34 35 36 36 32 30 32 35 38 36 33 34 34 31 30 32 32 33 33 34 35 35 35 35 36 37 38 40 40 40 40 41 42 44 45 47 48 49 49 50 50 50 50 49 48 46 45 45 45
33 33 31 29 28 28 27 27 28 28 30 31 33 34 34 34 34 34 34 33 32 31 32 32 31 30 30 30 30 32 34 35 37 37 37 37 36 36 38 38 35 32 32 35 38 37 35 35 33 31 32 33 34 35 36 36 37 37 37 37 37 38 40 40 41 41 41 42 43 45 47 48 49 49 49 49 49 48 47 46 45 44 45 45 46
32 31 31 32 33 33 31 32 32 32 33 34 36 36 36 36 36 37 37 36 34 34 34 34 34 33 33 32 33 34 36 37 38 40 40 39 38 38 39 39 38 35 34 37 39 37 35 35 34 33 33 34 36 37 38 38 39 39 39 39 39 39 40 40 41 41 42 44 45 46 47 48 49 48 48 48 47 46 45 44 43 43 44 44 45
30 31 32 34 37 36 35 36 36 36 36 38 38 38 38 38 39 40 40 39 39 38 37 37 37 36 36 36 36 36 38 39 40 42 43 42 40 40 40 40 39 38 39 40 39 36 35 36 36 35 34 36 37 38 39 39 40 41 41 40 40 40 40 40 41 42 43 44 45 47 48 48 47 47 47 46 45 43 43 42 42 42 42 43 43
34 35 37 38 39 39 40 41 40 39 39 39 40 40 40 40 41 42 43 43 43 42 41 40 39 39 39 40 39 39 39 41 42 43 44 44 42 41 42 42 40 40 42 41 38 36 36 37 37 36 36 37 38 38 39 41 41 42 42 41 40 40 40 40 41 42 44 45 46 47 47 46 45 45 44 44 42 41 40 40 40 41 41 41 41
38 39 40 40 41 42 43 44 43 41 41 42 43 44 43 43 43 45 46 47 47 46 45 45 44 43 43 43 43 42 42 42 43 44 45 45 43 42 44 46 44 42 42 40 37 36 38 39 38 37 37 37 38 39 40 42 43 43 43 41 40 40 40 40 42 43 44 45 46 46 45 44 44 43 42 41 40 39 39 39 40 40 40 40 39
41 41 41 42 42 42 43 44 44 44 44 44 45 46 46 46 46 47 48 48 48 48 48 49 49 48 46 46 47 46 45 44 44 45 45 45 45 44 44 47 49 47 42 39 38 39 40 40 39 39 38 38 39 40 42 43 44 44 43 41 40 40 40 41 42 43 44 45 45 45 44 43 42 41 40 39 38 38 38 39 39 39 38 37 37
42 43 45 45 44 45 45 46 46 46 46 47 47 49 50 51 51 50 50 50 51 52 51 51 52 52 51 50 50 50 49 47 47 47 47 46 46 46 43 45 49 49 44 40 40 42 43 42 41 40 39 39 40 42 43 44 45 45 43 41 40 40 40 41 42 43 44 45 45 43 42 41 40 39 38 37 37 37 38 38 38 37 36 36 37
49 49 49 48 47 46 47 48 48 49 50 51 52 52 53 53 54 54 54 56 58 58 56 55 54 54 54 52 51 52 52 51 50 49 48 48 48 47 45 45 48 49 46 43 43 45 46 45 42 41 41 41 41 43 44 45 45 45 43 41 40 40 41 41 42 43 44 44 43 42 40 39 37 36 36 36 36 36 36 36 35 34 34 36 38
49 48 47 47 47 47 49 50 51 52 52 53 54 54 54 55 56 56 57 59 60 60 59 58 57 57 56 55 55 54 54 54 54 53 51 51 50 48 48 48 49 49 47 45 47 49 48 45 44 44 43 43 43 44 45 45 46 45 43 41 41 41 41 41 42 43 43 43 42 40 38 36 35 35 35 35 35 35 34 33 32 33 35 37 39
45 45 45 46 48 49 51 53 54 55 57 57 57 57 59 60 61 61 61 61 60 61 61 60 59 57 58 58 58 57 56 57 57 56 55 53 52 51 51 52 52 52 49 47 48 50 48 46 47 47 45 44 43 44 46 47 46 44 42 41 41 40 41 41 42 42 43 42 41 39 36 34 33 33 34 34 34 33 31 30 31 34 36 38 39
45 46 48 49 51 52 54 55 57 58 59 60 61 61 62 63 64 65 64 63 63 63 63 64 63 60 60 62 62 61 60 59 59 60 58 56 54 53 53 55 56 54 51 49 49 50 49 48 49 49 47 45 44 45 47 47 46 44 42 40 40 40 40 41 41 42 42 41 39 37 34 33 32 32 33 33 32 31 29 29 32 35 37 38 39
46 46 47 49 51 53 54 56 57 59 60 62 63 63 64 65 66 66 65 65 65 63 63 66 67 65 64 65 65 65 65 62 61 62 62 59 57 56 57 59 59 55 50 48 49 50 50 50 50 49 47 45 45 46 47 46 44 43 41 40 40 40 40 40 40 41 41 39 37 35 33 31 31 32 32 32 30 28 28 30 33 35 37 38 39
48 47 47 50 52 54 56 58 59 61 62 64 65 67 68 69 70 69 68 67 67 64 63 65 67 68 69 69 69 70 70 66 63 64 66 63 61 61 61 59 55 52 50 48 49 52 52 50 49 49 48 46 45 45 46 44 43 42 40 39 39 39 39 39 40 40 40 38 35 33 31 30 30 31 31 30 28 27 28 31 34 36 37 38 38
48 47 49 51 52 53 55 57 59 61 64 67 69 70 71 72 73 74 73 73 72 71 67 65 66 67 68 71 73 72 68 65 63 63 66 68 67 64 59 54 49 48 49 49 50 53 53 50 49 49 48 45 43 44 44 43 42 41 39 39 39 39 39 39 39 39 38 36 33 31 30 30 30 29 29 28 27 27 29 32 35 37 38 38 38
44 44 47 50 50 50 52 54 57 61 64 67 70 71 73 75 76 78 78 77 76 76 76 72 69 66 66 71 76 73 65 61 61 57 57 64 70 65 54 47 45 46 47 49 51 53 53 52 50 49 47 43 42 43 44 42 40 39 39 38 38 38 38 38 38 38 36 33 31 30 29 29 28 28 27 26 26 27 30 33 36 37 38 37 37
41 43 46 48 48 49 50 53 57 60 62 65 67 69 73 77 79 82 85 85 82 80 81 79 74 68 69 73 75 72 67 63 60 56 53 57 64 65 55 45 43 44 46 49 51 53 54 52 49 47 46 44 43 43 42 40 39 38 38 38 38 38 37 37 37 36 34 31 29 28 28 27 27 26 25 25 26 28 31 33 36 37 37 37 36
42 44 46 47 47 47 48 51 55 58 61 62 62 66 73 79 83 84 83 85 88 89 86 84 80 74 74 75 73 71 70 66 59 57 57 57 56 55 52 47 44 43 45 49 52 54 54 52 48 46 46 45 44 42 41 39 38 37 37 37 38 37 37 37 36 34 32 30 28 27 26 26 25 24 24 24 26 28 31 34 35 36 36 36 36
43 45 46 46 47 47 49 53 55 56 58 58 59 65 67 62 63 70 75 81 89 90 85 82 80 78 77 76 72 69 68 67 64 63 63 63 60 54 52 53 52 48 47 51 54 54 54 53 48 45 44 44 43 41 39 37 37 37 36 37 37 36 36 36 35 33 30 28 27 26 25 24 24 23 23 24 26 28 31 33 35 35 35 35 36
44 46 46 46 47 48 50 53 55 55 56 56 58 62 53 34 29 44 59 71 80 84 82 80 80 83 85 79 72 70 69 67 71 73 68 64 63 59 56 56 55 53 53 55 55 54 55 54 49 44 43 43 42 39 37 36 36 36 36 36 36 35 35 35 34 31 28 26 25 25 24 23 22 22 23 24 26 28 31 33 33 33 34 34 35
44 45 44 44 45 46 48 51 52 53 54 54 52 52 48 35 28 31 29 31 37 43 56 67 71 83 96 87 71 72 76 71 71 74 69 63 63 62 59 55 53 53 55 55 54 55 57 54 48 44 43 42 40 37 35 35 35 35 36 35 35 34 34 34 32 30 27 25 24 23 23 22 22 22 22 24 25 28 31 32 32 32 33 33 34
43 43 42 42 43 44 45 47 48 47 48 48 44 41 42 39 33 27 20 22 21 16 34 60 58 58 79 87 74 70 75 71 66 66 64 61 59 59 58 57 54 53 53 54 55 57 56 51 45 43 43 40 37 35 35 35 35 35 35 34 34 34 33 33 31 28 26 24 23 22 21 21 21 21 22 23 26 28 30 30 30 31 31 32 33
42 42 41 40 40 41 40 41 41 40 39 40 37 33 31 28 23 21 23 32 36 30 35 62 64 47 50 62 64 62 62 61 59 59 58 54 50 49 52 55 56 55 55 56 56 55 50 45 42 42 40 38 36 35 35 35 35 34 33 34 33 33 32 32 29 27 25 23 22 21 20 20 20 21 21 23 25 27 28 28 28 29 29 30 32
42 42 40 38 38 38 37 36 35 34 33 32 30 28 26 23 18 15 14 17 22 23 25 46 63 53 36 33 40 44 46 48 49 48 47 45 43 44 46 50 52 55 56 55 52 48 45 43 42 41 39 37 35 35 35 35 33 33 33 33 33 31 31 30 28 26 24 22 21 20 19 19 19 20 21 23 25 26 26 26 27 27 28 29 31
42 41 39 37 37 36 36 34 32 30 28 28 26 24 23 21 18 15 13 10 9 8 7 15 31 37 31 28 29 31 33 36 37 38 39 40 41 43 46 48 51 54 53 50 48 47 46 45 43 41 38 37 36 36 35 33 32 32 33 33 31 30 30 29 27 25 23 22 20 19 19 18 19 19 21 23 24 24 24 25 25 25 26 28 30
43 42 39 37 37 37 35 33 32 29 26 24 23 21 19 18 17 15 14 12 10 8 8 11 17 21 23 25 26 28 30 32 35 37 39 41 42 44 47 50 52 52 50 49 48 47 46 45 44 42 40 38 37 36 34 32 32 33 33 31 30 29 29 28 26 24 23 21 19 19 18 18 18 19 21 22 22 22 23 23 23 24 26 28 30
42 42 40 38 38 39 38 35 33 31 28 25 23 22 20 18 17 16 15 15 14 14 13 13 15 18 20 22 25 27 29 32 35 37 39 41 42 45 48 51 52 52 51 50 48 47 46 45 44 42 41 39 37 34 32 31 32 33 32 30 29 28 28 27 26 24 22 20 19 18 18 18 19 19 20 21 21 21 21 22 22 23 25 27 29
40 40 40 40 39 39 39 37 34 32 29 27 25 25 23 22 21 20 19 19 19 19 20 20 20 22 23 25 27 29 31 33 36 39 41 43 45 47 49 51 52 52 50 47 44 44 44 42 41 41 39 37 34 32 31 31 32 32 32 30 28 28 28 27 26 24 22 20 19 19 18 18 19 19 20 20 20 20 20 20 21 23 24 26 28
38 36 37 40 41 39 37 35 32 31 29 28 27 26 26 25 24 23 23 23 23 24 24 25 25 26 28 29 31 33 35 36 39 41 43 44 45 46 47 47 48 48 46 42 39 38 39 39 39 38 36 34 32 31 31 31 31 32 31 30 28 28 27 27 25 24 22 20 19 19 19 19 19 19 19 19 19 19 19 19 20 22 24 26 28
34 30 30 34 37 37 36 33 31 29 28 28 27 28 28 28 27 26 26 27 27 28 28 28 29 30 31 32 33 35 37 38 39 41 42 42 43 43 43 44 44 43 40 37 35 35 36 37 36 35 33 32 32 31 30 31 31 32 31 30 28 27 27 27 25 23 22 21 20 20 20 20 19 19 19 18 18 19 19 19 20 22 24 25 27
32 28 27 29 32 33 33 31 30 30 30 28 27 27 28 28 30 31 30 30 30 31 31 32 32 31 32 32 34 35 37 38 38 39 40 42 43 43 42 41 40 38 35 33 33 33 34 34 34 33 32 32 31 30 30 31 31 31 31 30 29 28 27 26 25 24 22 22 21 21 21 20 19 19 18 18 18 18 18 19 20 22 24 25 26
31 29 29 30 32 33 33 32 32 33 32 30 28 28 27 26 28 30 31 31 31 31 30 28 27 27 28 29 31 32 33 34 35 36 37 38 38 38 36 34 33 31 31 31 32 33 33 33 32 31 31 31 31 31 31 30 31 32 32 31 29 27 27 26 25 24 24 23 22 22 21 21 20 19 18 18 18 18 18 19 20 22 23 25 25
30 29 29 30 32 34 35 35 35 35 35 33 31 29 26 24 24 26 28 28 29 29 28 27 27 27 28 30 32 34 34 34 33 32 32 32 31 31 30 29 29 30 31 32 32 32 32 32 31 31 31 31 32 31 31 30 31 32 31 30 29 28 27 26 26 25 25 24 23 22 22 21 20 19 18 18 18 19 19 20 21 22 23 24 25
32 31 30 31 32 34 34 34 34 34 34 33 32 31 29 27 27 26 24 23 25 26 27 27 28 29 29 30 32 33 34 33 31 30 29 29 28 28 29 29 30 30 31 31 31 31 31 31 31 31 32 32 32 31 31 31 31 31 31 30 30 29 27 27 27 27 26 25 24 23 23 22 20 19 19 19 19 20 20 21 22 22 23 24 25
34 34 33 33 34 34 34 34 34 33 33 32 32 32 31 31 30 28 26 24 26 29 30 28 28 27 27 27 28 27 27 27 29 30 31 31 30 30 30 30 30 30 31 31 31 31 31 31 31 32 32 33 32 32 31 31 31 31 31 31 30 30 29 28 28 28 27 26 25 24 24 22 21 20 20 20 21 21 22 22 22 23 23 24 25
Wind_Direction
249 250 249 248 248 247 247 246 246 246 246 248 248 248 250 253 255 257 258 262 265 264 258 244 235 237 239 237 236 238 247 257 261 268 287 305 324 338 345 349 347 343 344 350 353 351 350 350 349 345 343 342 341 343 346 344 344 345 343 339 334 328 322 318 317 318 315 312 308 306 302 299 298 297 294 290 286 283 280 279 278 279 279 281 282
246 246 246 246 247 246 245 245 245 246 247 248 249 249 251 253 253 254 256 260 261 259 252 240 234 238 242 240 238 240 249 258 260 268 287 305 324 339 345 344 337 332 333 343 349 349 348 347 348 345 342 342 338 337 340 341 341 342 341 340 337 334 329 323 319 319 318 314 310 308 305 301 300 298 296 293 291 289 287 284 283 282 282 282 283
241 244 247 248 248 247 246 246 244 245 246 247 248 249 250 250 251 253 255 257 256 254 248 237 234 239 244 242 239 243 251 258 260 268 286 305 325 339 342 338 330 326 326 334 344 347 344 343 344 343 340 338 334 332 335 336 337 338 338 336 335 333 329 323 319 319 319 318 316 313 309 305 302 300 297 296 295 294 292 290 289 287 286 284 283
241 248 250 249 248 249 249 249 248 247 245 246 246 247 248 250 252 254 254 253 251 248 243 236 236 241 246 245 241 244 252 257 260 268 284 304 324 338 341 338 334 332 331 334 340 342 341 340 338 337 336 335 332 330 332 333 334 334 334 333 331 329 324 320 317 316 316 317 317 314 310 306 303 301 299 298 298 297 295 293 293 292 290 289 288
243 249 250 250 251 251 250 250 248 247 245 245 246 246 248 250 251 252 251 250 246 242 239 237 238 243 246 245 243 246 253 258 260 268 280 296 315 331 338 339 340 341 339 334 331 332 333 331 327 326 328 330 330 328 329 331 332 331 331 329 327 324 320 317 314 313 311 310 310 310 309 308 306 303 301 300 299 299 297 297 297 296 296 295 295
244 247 249 253 255 254 253 250 247 245 243 244 245 247 249 251 252 251 249 248 243 240 237 237 240 244 245 245 244 248 255 258 261 269 278 289 305 318 328 333 339 343 339 329 323 321 321 318 314 313 315 318 323 323 324 328 330 328 327 327 325 322 318 315 312 310 308 306 305 306 307 308 306 305 305 304 302 301 301 300 299 298 298 299 298
243 246 251 257 260 261 258 252 250 248 247 247 247 250 252 254 255 252 249 247 244 242 239 238 242 245 246 247 246 249 255 257 262 272 279 287 300 310 319 327 334 340 337 329 322 318 314 310 308 309 308 308 314 319 322 326 329 327 326 324 322 320 316 313 311 309 307 305 303 304 306 307 306 305 306 306 305 304 304 301 298 298 300 301 299
244 247 254 261 269 271 265 260 260 258 257 258 258 258 256 256 257 254 250 248 247 246 243 241 244 248 248 248 248 250 255 258 264 275 283 292 300 305 313 323 330 333 331 328 325 320 313 308 306 309 310 307 309 317 322 326 327 326 325 323 320 317 314 312 310 307 305 304 304 305 307 308 306 305 305 306 306 305 304 301 300 300 301 301 297
246 247 252 262 274 274 270 270 270 267 267 272 276 275 268 259 256 255 252 250 250 249 248 247 250 252 252 251 250 253 256 259 266 277 286 294 300 305 311 320 326 326 323 322 323 320 313 308 305 306 308 306 309 318 322 324 325 324 323 322 318 314 313 311 308 306 306 305 305 308 310 308 307 306 306 305 304 302 301 301 301 300 300 299 295
249 251 253 261 270 269 271 274 273 273 274 274 278 284 283 273 264 258 254 251 251 251 251 253 255 256 254 253 252 254 256 259 268 279 287 293 298 303 308 313 320 321 317 316 318 317 313 310 308 306 304 304 312 321 322 321 322 322 321 319 315 312 312 311 309 309 310 310 309 311 312 309 308 308 307 306 304 303 301 301 301 300 300 299 297
249 249 251 257 262 264 270 274 274 277 278 275 276 279 281 281 278 270 261 254 252 252 253 256 259 258 256 254 254 255 255 260 269 278 286 292 296 302 305 308 314 316 315 315 315 315 314 312 312 310 309 317 326 326 323 321 319 320 319 316 312 310 311 313 313 315 315 315 316 316 314 312 310 309 308 307 306 303 301 300 299 298 299 299 298
246 246 246 250 256 260 265 270 272 276 278 277 276 274 273 278 283 284 277 265 258 257 258 259 259 258 256 256 256 256 255 259 267 276 284 289 293 298 301 305 310 314 317 316 312 313 315 316 318 318 316 326 331 326 322 320 318 317 316 313 310 310 314 316 317 318 318 319 319 319 316 314 312 310 309 307 305 303 300 299 298 298 299 299 299
244 244 244 247 251 255 259 263 267 271 274 276 274 271 272 276 279 281 281 276 272 270 267 264 261 258 257 258 259 258 257 258 265 275 281 286 291 295 298 303 308 315 320 316 311 313 313 313 322 326 322 324 329 325 321 320 316 314 313 312 312 314 318 319 318 318 319 320 320 319 317 315 313 310 309 308 304 302 300 299 298 299 300 300 300
239 238 242 247 251 253 256 259 262 265 268 269 269 270 272 274 275 275 277 279 281 280 275 271 267 262 259 260 261 259 258 259 265 273 278 282 288 291 295 301 308 314 316 314 313 314 311 310 319 325 324 326 327 324 322 320 316 315 314 313 316 319 321 320 318 319 320 320 319 318 317 316 314 311 309 306 303 301 300 300 301 302 303 303 302
240 238 239 244 248 251 254 256 258 260 262 264 265 267 269 271 272 273 276 278 279 278 276 275 273 268 262 260 260 260 259 260 265 271 275 279 284 289 294 299 305 309 309 309 310 310 308 311 320 324 325 326 325 323 322 321 319 318 316 316 318 320 320 318 317 319 320 318 317 317 317 315 313 311 308 306 304 303 303 304 305 306 307 307 305
244 244 243 243 245 248 250 252 254 256 258 260 263 265 266 268 269 270 271 273 274 275 277 277 277 274 268 263 261 261 260 261 264 269 271 276 281 287 292 296 300 305 307 307 307 305 306 313 320 325 327 325 323 322 321 321 322 321 318 318 319 319 318 317 316 317 318 317 315 315 314 313 311 310 308 307 306 307 307 307 308 309 309 308 307
246 248 247 245 245 248 250 252 254 255 256 259 263 265 265 265 265 266 267 268 269 271 274 275 275 273 270 267 265 262 260 259 262 265 268 273 279 284 288 291 295 301 305 306 305 304 307 314 320 324 325 323 322 323 323 322 322 320 318 318 318 318 316 315 316 316 316 316 316 315 313 312 311 310 310 310 309 309 309 309 310 310 310 309 308
247 250 250 247 246 246 248 251 252 253 255 259 262 264 263 263 264 264 265 265 264 264 265 267 270 271 272 270 266 262 259 258 259 262 266 270 275 280 284 287 292 297 301 302 302 303 308 314 317 320 320 320 323 324 324 323 320 318 318 317 316 316 315 315 315 315 316 316 315 314 313 311 311 312 312 312 312 311 311 312 312 312 311 309 308
249 254 252 248 249 250 250 252 253 253 255 257 259 261 261 261 261 262 263 263 262 261 260 261 265 269 271 271 268 263 259 257 257 259 263 267 271 276 280 283 288 293 295 296 297 301 308 312 312 313 315 319 322 324 323 321 319 317 316 316 315 315 314 314 315 315 315 315 315 313 313 312 313 314 314 313 313 313 313 314 313 312 310 310 310
260 262 258 255 258 260 260 260 262 263 263 264 263 262 260 258 257 258 260 261 260 259 258 258 260 264 267 269 268 265 261 259 257 257 259 263 267 272 276 280 284 288 291 294 297 301 304 305 306 309 314 318 321 322 321 319 317 316 315 315 315 314 313 313 314 314 314 314 314 313 312 313 314 315 314 314 314 314 315 314 313 312 311 311 311
265 263 260 259 260 261 262 263 265 266 266 266 265 266 266 264 261 259 258 258 259 259 258 256 256 258 262 265 266 264 262 260 257 255 257 260 264 269 274 276 279 283 287 291 296 301 301 300 302 307 313 317 318 318 318 318 316 315 314 314 313 312 312 313 313 314 314 313 313 313 313 314 315 315 315 315 315 315 315 314 313 313 313 313 313
267 265 263 262 260 261 263 266 266 266 266 266 268 270 271 268 265 262 259 258 258 258 258 258 256 255 255 259 262 262 262 260 257 255 256 259 262 266 271 273 274 278 283 287 292 297 297 296 299 304 309 313 315 315 316 316 316 315 313 312 311 310 311 313 313 314 314 313 312 313 314 315 316 316 316 316 316 316 315 314 314 315 315 316 316
266 268 268 268 267 266 268 269 270 270 271 271 272 273 272 269 267 265 263 261 260 259 257 257 258 257 255 255 257 259 260 260 258 255 254 257 260 263 268 273 276 278 281 283 288 293 295 294 297 302 307 310 311 312 314 315 315 314 313 310 310 311 311 312 313 313 312 313 313 314 315 317 317 317 317 316 316 316 316 316 316 316 316 318 319
264 266 268 269 268 268 268 269 269 270 270 270 271 271 271 270 270 269 266 265 266 266 263 259 258 257 257 256 257 258 258 258 257 255 254 255 258 261 264 270 276 279 282 284 287 290 293 294 297 300 303 306 308 309 312 314 313 312 311 309 309 310 311 312 312 312 312 313 313 314 316 318 318 317 317 316 316 316 317 316 316 317 318 320 320
265 266 268 268 268 267 267 267 268 269 269 269 269 268 267 268 269 270 269 268 268 269 268 265 261 258 258 258 257 258 258 257 256 255 253 253 255 258 262 265 270 275 279 282 284 287 290 292 295 298 299 301 304 307 310 312 312 310 308 308 308 309 311 311 311 311 312 312 313 315 317 318 318 317 316 315 316 317 317 316 316 317 319 320 320
266 267 268 268 269 269 269 269 271 272 271 272 272 269 266 266 267 267 266 265 266 267 267 266 263 260 259 258 257 258 258 256 255 253 252 252 253 256 260 263 266 270 273 277 280 283 286 289 291 293 295 298 301 305 308 310 310 308 306 306 307 308 309 310 310 311 312 312 313 316 318 319 318 316 314 315 317 317 316 316 316 318 320 320 319
269 269 269 269 269 269 270 271 272 273 273 274 273 270 268 268 268 267 265 263 262 263 264 264 263 263 263 261 257 257 257 257 255 252 251 251 252 254 258 262 264 266 268 272 276 279 282 285 287 288 292 295 299 303 307 308 308 306 304 304 306 307 307 308 309 310 311 312 314 317 319 319 317 315 314 315 317 316 315 315 317 319 320 319 319
268 269 269 269 269 269 269 270 270 271 271 272 271 271 270 269 269 268 267 265 262 261 262 261 259 262 264 262 258 256 256 256 254 251 249 249 250 252 255 259 262 263 264 267 272 276 278 281 283 285 288 294 299 302 305 306 305 302 302 303 304 305 306 307 308 309 310 312 315 317 318 318 315 314 314 316 316 314 313 315 318 319 319 319 319
264 265 266 267 268 269 269 270 270 269 269 269 269 269 269 269 268 267 266 264 262 260 259 258 257 257 257 256 255 254 253 253 252 249 246 245 246 249 251 254 257 260 262 266 270 274 276 278 280 283 287 292 297 301 302 303 301 299 300 302 303 303 304 306 307 309 310 312 315 317 317 317 315 314 314 315 314 313 314 316 318 319 320 320 320
266 266 267 269 270 271 272 273 273 272 271 270 269 268 267 268 268 267 265 264 262 261 258 257 257 258 256 255 254 252 252 251 249 245 243 241 241 243 247 252 256 258 261 266 270 272 275 277 278 282 287 291 294 298 300 299 298 297 298 300 301 301 303 305 306 308 310 312 315 316 316 315 315 314 313 313 313 313 315 317 319 320 321 321 322
267 267 267 268 269 271 272 272 272 272 272 270 269 268 268 267 267 267 266 264 262 261 259 256 256 258 259 259 256 254 253 252 248 243 240 238 237 238 243 251 257 257 259 264 268 271 274 277 278 282 287 289 292 296 297 295 294 294 296 299 300 300 301 304 306 307 310 312 313 314 315 314 314 313 312 313 314 314 315 318 320 321 322 322 323
267 266 267 267 270 271 270 270 271 270 269 269 269 269 268 268 266 265 264 263 262 261 260 258 255 256 257 258 257 256 253 251 249 245 239 236 236 237 242 250 254 254 257 262 266 270 273 275 277 281 286 290 293 295 294 292 291 293 296 297 298 298 300 303 305 307 308 310 311 313 313 313 312 312 313 314 314 314 316 319 321 322 323 324 324
269 269 269 271 274 274 274 275 274 272 271 272 272 273 273 271 268 265 261 258 257 257 256 256 255 255 253 253 254 254 252 250 252 250 243 238 235 234 237 247 252 253 257 262 265 269 272 274 277 281 286 290 292 292 290 289 290 292 295 296 295 297 300 302 304 306 306 308 310 312 312 311 311 312 313 313 313 315 317 320 322 323 324 324 324
269 269 270 273 276 277 280 281 279 277 277 276 276 278 276 271 268 266 262 256 252 250 248 250 252 251 249 247 247 250 250 250 252 249 241 236 234 233 238 251 258 257 259 263 266 270 274 276 278 282 285 288 289 288 287 287 289 291 293 294 294 296 299 301 303 304 304 306 310 311 311 311 312 313 313 312 313 315 318 321 323 324 324 324 325
268 269 271 276 278 279 282 284 283 282 282 281 281 285 284 277 272 271 264 256 252 249 245 244 246 246 245 244 243 246 249 249 247 246 244 241 241 244 250 258 261 261 262 265 267 271 275 276 277 279 283 285 285 284 284 286 288 290 291 291 292 295 298 300 301 302 302 305 309 309 309 311 312 312 311 311 313 316 320 322 323 324 324 325 326
268 270 275 278 279 280 282 283 283 284 284 283 285 289 293 295 296 287 271 254 250 252 251 248 246 243 241 241 240 239 243 246 244 245 248 246 245 251 258 259 259 260 261 264 268 271 274 276 276 278 281 282 281 281 282 283 286 288 288 289 292 294 296 298 299 300 302 305 307 307 308 310 310 310 309 310 313 318 321 322 323 324 325 326 327
270 273 277 279 280 281 281 281 283 285 287 287 288 291 296 296 295 299 281 238 230 242 240 232 230 228 227 230 234 236 239 244 244 244 247 249 251 256 259 255 255 259 262 264 269 272 274 276 276 275 277 277 276 277 279 281 283 285 286 288 290 292 294 296 298 300 301 302 304 306 307 307 306 306 306 309 314 318 321 322 323 325 327 328 329
272 274 277 278 279 281 280 281 285 288 290 291 290 294 305 304 294 293 277 229 222 230 205 197 199 207 210 214 223 232 237 243 246 245 249 255 258 256 253 250 253 260 264 267 271 273 276 277 274 271 273 273 272 274 277 278 280 282 284 287 288 290 293 295 297 297 298 301 304 305 303 302 301 302 304 309 315 319 321 322 323 325 327 329 331
273 274 276 277 279 280 280 282 288 291 293 296 292 289 302 313 305 292 273 250 254 266 232 209 208 208 206 213 226 237 245 251 253 251 254 258 257 252 249 250 254 261 266 269 271 273 274 273 270 269 270 270 269 272 274 276 278 281 283 284 286 288 292 294 294 293 295 300 302 299 296 296 298 299 304 310 315 318 320 322 323 326 329 332 333
273 273 275 276 276 277 277 280 288 292 293 296 294 285 287 298 299 291 283 258 254 269 255 225 218 220 227 238 244 247 252 255 254 251 253 254 252 251 252 253 257 262 266 269 271 273 273 271 269 269 268 266 267 270 272 274 278 280 280 282 284 288 291 292 290 290 292 294 294 290 289 292 296 299 305 311 315 318 319 321 324 328 331 334 335
273 273 275 275 274 275 276 277 282 289 289 288 290 286 281 286 289 284 286 289 269 260 252 221 218 226 242 252 246 241 245 246 245 247 250 251 252 254 256 258 261 264 266 269 272 274 273 270 268 266 264 263 266 269 270 274 277 277 277 280 283 286 289 288 286 286 287 288 287 285 286 290 295 299 305 310 314 317 318 321 325 330 334 336 336
272 272 273 274 272 272 274 274 273 278 281 279 283 288 286 284 288 287 283 289 293 273 240 221 221 230 241 245 245 247 249 247 248 251 252 253 256 258 259 262 265 266 268 272 274 273 270 267 265 263 262 263 265 267 269 273 274 274 276 279 282 284 286 284 283 283 283 283 282 281 283 288 293 298 304 309 312 315 317 321 327 332 335 337 337
268 269 269 270 270 269 270 270 268 269 272 271 270 276 282 284 287 292 290 287 290 290 280 265 253 249 249 251 253 254 254 254 256 256 256 257 260 261 263 266 268 269 271 272 271 269 268 266 265 263 262 263 264 266 268 270 271 272 276 278 279 281 283 282 280 279 279 278 277 277 280 286 291 296 302 307 309 312 316 321 327 332 335 336 336
267 267 266 266 267 266 266 267 265 262 265 268 268 268 271 274 276 279 283 283 282 282 281 278 273 268 264 262 262 261 260 260 261 260 261 262 263 263 265 267 269 271 273 271 268 267 267 265 263 262 261 261 263 265 267 269 270 272 275 276 277 280 281 279 277 276 275 274 273 274 278 283 289 295 301 304 306 309 314 320 327 331 333 333 333
266 268 267 263 262 263 263 263 262 260 259 263 267 268 269 272 275 276 276 277 277 276 276 274 272 270 268 266 264 262 261 261 261 263 264 264 263 264 265 266 267 270 270 268 265 263 262 260 259 259 259 261 264 265 266 267 269 271 273 274 275 278 278 276 274 272 271 270 270 271 275 281 287 294 299 300 302 306 312 318 324 328 329 330 331
262 263 264 260 258 258 259 258 259 260 259 260 264 269 272 275 279 281 280 279 277 277 276 275 273 270 268 267 267 266 265 264 263 263 262 262 263 264 265 265 266 266 264 261 258 257 255 255 256 257 259 263 264 264 265 267 269 270 271 272 274 275 275 273 272 270 268 267 266 268 273 279 285 291 295 295 298 303 309 315 321 324 326 327 328
260 258 261 262 259 257 259 261 262 264 265 265 267 271 275 279 281 281 281 281 282 281 279 277 274 272 271 270 269 268 266 264 263 263 263 264 265 265 264 263 262 259 255 252 251 251 251 253 256 259 262 264 264 264 265 267 268 269 269 270 272 274 273 271 270 268 265 264 264 267 272 277 283 288 290 291 294 299 305 311 317 320 322 325 326
264 261 261 263 263 262 263 266 268 268 269 271 273 274 277 281 283 281 280 281 282 280 278 275 275 276 276 274 271 269 268 267 267 266 265 264 262 260 258 255 252 249 247 248 248 250 252 255 258 261 263 264 264 265 266 266 267 267 268 269 271 272 271 269 267 265 262 261 262 265 270 275 281 285 286 286 289 293 299 306 312 316 319 322 324
266 265 262 261 263 264 266 267 267 268 268 269 270 271 273 274 275 278 282 285 283 278 275 275 276 277 275 272 270 269 269 270 269 266 263 259 256 253 250 248 247 247 249 250 251 253 256 258 261 263 264 264 265 265 266 266 266 266 267 268 269 269 268 266 264 262 260 260 261 265 270 274 278 281 282 282 283 288 293 300 306 311 316 319 321
263 264 264 262 262 263 264 264 264 265 266 266 266 266 265 264 264 267 271 276 278 278 277 276 275 272 269 268 267 267 267 266 264 260 256 253 251 250 249 250 251 253 253 255 257 259 260 262 263 264 264 264 265 266 266 267 266 266 265 265 266 266 266 264 261 259 259 259 261 265 269 273 275 277 277 277 279 283 289 295 301 307 312 316 319
262 262 263 263 263 263 263 264 263 263 263 263 263 263 263 262 262 261 259 259 264 270 271 267 264 263 262 261 263 265 264 262 259 256 254 253 253 253 253 254 256 258 259 260 261 262 263 263 264 263 264 265 266 267 267 267 266 265 264 263 263 263 263 261 259 258 258 259 261 265 268 270 272 273 273 274 276 279 284 290 296 303 309 313 316
Height
5896 5897 5898 5898 5899 5900 5900 5902 5903 5903 5904 5905 5906 5907 5907 5907 5908 5908 5908 5909 5910 5910 5911 5912 5912 5913 5914 5914 5913 5913 5913 5913 5913 5913 5913 5912 5913 5913 5913 5912 5911 5909 5908 5906 5905 5904 5903 5902 5901 5900 5899 5898 5897 5895 5894 5893 5892 5890 5889 5888 5888 5887 5886 5885 5884 5883 5883 5882 5880 5879 5879 5877 5875 5874 5873 5871 5870 5869 5868 5866 5865 5864 5863 5862 5860
5893 5894 5895 5895 5896 5897 5897 5898 5899 5901 5902 5903 5904 5904 5904 5905 5905 5905 5906 5907 5907 5908 5908 5909 5911 5911 5912 5912 5912 5912 5911 5911 5911 5911 5911 5911 5911 5911 5911 5910 5909 5907 5906 5905 5904 5903 5901 5900 5900 5899 5897 5896 5895 5893 5892 5891 5890 5889 5888 5887 5886 5885 5884 5883 5881 5880 5879 5878 5877 5876 5875 5874 5872 5871 5869 5868 5867 5866 5864 5863 5862 5860 5859 5858 5857
5891 5891 5892 5893 5893 5894 5894 5895 5896 5898 5899 5900 5901 5901 5901 5901 5901 5902 5903 5904 5904 5905 5906 5907 5909 5910 5910 5911 5911 5910 5910 5910 5910 5910 5910 5910 5910 5909 5909 5908 5907 5905 5904 5903 5902 5901 5900 5899 5898 5897 5896 5894 5893 5891 5890 5889 5888 5887 5886 5885 5884 5883 5882 5881 5879 5878 5876 5874 5873 5872 5871 5870 5869 5867 5866 5864 5863 5862 5861 5859 5858 5857 5856 5854 5852
5889 5889 5890 5890 5891 5891 5892 5893 5893 5895 5896 5897 5897 5898 5898 5898 5898 5899 5900 5901 5902 5903 5903 5905 5907 5908 5909 5909 5909 5909 5909 5909 5909 5909 5909 5909 5908 5908 5907 5906 5905 5903 5902 5901 5900 5899 5898 5897 5896 5895 5894 5892 5891 5889 5888 5887 5886 5885 5884 5883 5882 5881 5880 5879 5877 5876 5874 5872 5870 5869 5868 5866 5865 5863 5862 5861 5859 5858 5856 5855 5854 5853 5851 5849 5847
5887 5888 5888 5888 5889 5889 5890 5890 5891 5892 5893 5894 5894 5894 5895 5895 5896 5897 5897 5898 5899 5900 5901 5903 5905 5906 5906 5907 5907 5907 5907 5907 5907 5908 5908 5907 5906 5906 5905 5904 5903 5902 5901 5900 5898 5897 5896 5895 5894 5893 5891 5890 5888 5887 5886 5885 5884 5883 5882 5881 5880 5879 5877 5876 5875 5874 5872 5870 5867 5865 5864 5862 5860 5858 5857 5856 5855 5853 5852 5851 5850 5847 5845 5843 5842
5885 5886 5886 5886 5887 5887 5888 5888 5889 5890 5890 5891 5891 5892 5892 5892 5893 5894 5895 5896 5897 5898 5899 5901 5902 5904 5904 5904 5905 5905 5905 5906 5906 5906 5906 5906 5905 5903 5903 5902 5901 5900 5899 5898 5896 5895 5894 5893 5892 5891 5889 5888 5886 5885 5884 5883 5882 5881 5879 5878 5877 5876 5875 5873 5872 5871 5869 5867 5864 5862 5860 5858 5855 5853 5852 5851 5850 5848 5847 5846 5845 5842 5840 5838 5836
5882 5883 5884 5885 5885 5885 5886 5886 5887 5887 5888 5888 5889 5889 5890 5891 5891 5892 5893 5893 5894 5896 5897 5899 5900 5901 5901 5901 5902 5903 5903 5904 5904 5904 5904 5904 5902 5901 5901 5900 5899 5898 5897 5895 5893 5892 5891 5890 5889 5888 5887 5886 5884 5883 5882 5881 5879 5878 5877 5875 5874 5873 5872 5870 5869 5868 5866 5864 5861 5858 5856 5854 5851 5849 5847 5846 5844 5843 5842 5841 5839 5837 5835 5833 5831
5880 5881 5882 5883 5883 5884 5884 5884 5885 5885 5886 5886 5887 5888 5888 5889 5890 5890 5891 5892 5893 5894 5895 5896 5897 5898 5898 5899 5900 5900 5901 5902 5902 5901 5901 5900 5900 5899 5899 5898 5896 5895 5893 5892 5890 5889 5888 5888 5887 5886 5885 5883 5882 5880 5879 5878 5877 5875 5873 5872 5871 5870 5868 5867 5865 5864 5862 5860 5857 5854 5852 5850 5847 5845 5843 5841 5840 5838 5837 5836 5834 5832 5829 5828 5826
5877 5878 5879 5881 5881 5882 5882 5882 5883 5884 5884 5885 5885 5886 5886 5887 5888 5888 5889 5891 5891 5892 5893 5894 5895 5895 5896 5896 5897 5898 5899 5899 5899 5898 5898 5897 5896 5896 5896 5896 5894 5892 5890 5888 5887 5887 5886 5885 5884 5883 5882 5880 5879 5877 5876 5875 5874 5872 5870 5869 5867 5866 5864 5863 5861 5860 5858 5856 5853 5851 5849 5846 5843 5841 5839 5837 5836 5834 5832 5831 5829 5827 5824 5823 5820
5875 5876 5877 5879 5879 5879 5880 5881 5882 5882 5883 5883 5884 5884 5884 5885 5886 5886 5887 5888 5889 5890 5891 5891 5892 5893 5893 5894 5894 5895 5896 5896 5896 5895 5894 5894 5893 5892 5893 5892 5892 5890 5887 5885 5884 5884 5883 5882 5881 5879 5878 5877 5876 5874 5873 5872 5871 5869 5867 5865 5863 5862 5860 5858 5856 5855 5853 5852 5849 5847 5844 5842 5839 5836 5835 5833 5831 5830 5828 5826 5824 5821 5819 5818 5815
5873 5874 5875 5876 5877 5877 5878 5879 5880 5880 5881 5882 5882 5882 5883 5883 5884 5885 5885 5886 5887 5887 5888 5889 5890 5890 5890 5891 5891 5892 5893 5893 5893 5892 5891 5890 5889 5889 5889 5888 5888 5887 5885 5883 5882 5881 5880 5879 5878 5877 5876 5875 5873 5871 5870 5869 5867 5866 5864 5862 5859 5857 5855 5853 5851 5849 5848 5847 5845 5842 5839 5837 5834 5832 5830 5828 5826 5825 5822 5820 5818 5816 5814 5813 5811
5870 5872 5873 5874 5874 5875 5876 5876 5877 5878 5879 5880 5880 5880 5881 5881 5882 5882 5883 5884 5884 5885 5885 5886 5887 5887 5887 5888 5888 5889 5890 5890 5890 5889 5888 5887 5885 5885 5884 5884 5884 5884 5883 5881 5879 5878 5877 5876 5875 5875 5874 5872 5870 5869 5867 5865 5864 5862 5860 5858 5855 5853 5850 5848 5846 5844 5843 5841 5839 5837 5834 5832 5830 5828 5825 5823 5822 5819 5817 5815 5813 5811 5808 5807 5805
5868 5869 5870 5871 5872 5873 5874 5874 5875 5876 5877 5877 5877 5878 5878 5879 5879 5880 5881 5881 5881 5881 5882 5883 5883 5884 5884 5885 5885 5886 5887 5887 5886 5886 5885 5883 5881 5880 5880 5880 5881 5880 5880 5879 5877 5875 5874 5873 5873 5872 5871 5868 5867 5865 5864 5862 5860 5858 5856 5853 5851 5848 5845 5843 5841 5840 5838 5836 5834 5832 5829 5827 5825 5823 5820 5818 5816 5814 5812 5810 5807 5805 5803 5800 5798
5865 5867 5868 5868 5869 5870 5871 5872 5873 5874 5874 5874 5874 5875 5875 5876 5877 5877 5878 5878 5878 5879 5879 5879 5880 5881 5881 5882 5882 5883 5883 5883 5882 5882 5881 5880 5877 5876 5876 5877 5877 5877 5876 5876 5874 5872 5871 5870 5869 5868 5866 5864 5862 5861 5860 5858 5856 5854 5851 5849 5846 5843 5841 5839 5837 5835 5834 5831 5829 5827 5825 5822 5820 5818 5815 5813 5811 5808 5806 5804 5801 5798 5796 5793 5790
5862 5864 5864 5865 5866 5867 5868 5869 5870 5871 5871 5871 5871 5872 5873 5873 5874 5874 5874 5875 5875 5876 5876 5876 5877 5877 5878 5878 5878 5879 5879 5879 5879 5878 5877 5876 5873 5872 5872 5874 5874 5873 5873 5872 5871 5870 5869 5868 5866 5864 5863 5860 5859 5858 5856 5854 5852 5850 5847 5845 5842 5839 5837 5835 5833 5831 5829 5827 5824 5822 5820 5818 5816 5813 5810 5808 5805 5803 5800 5798 5794 5791 5789 5786 5783
5858 5860 5861 5862 5863 5864 5865 5866 5867 5868 5868 5868 5868 5869 5869 5870 5871 5871 5871 5871 5872 5872 5872 5873 5873 5873 5874 5874 5874 5875 5875 5875 5874 5874 5873 5872 5870 5868 5868 5869 5870 5869 5869 5869 5868 5867 5866 5865 5863 5862 5860 5857 5856 5855 5853 5850 5848 5846 5843 5840 5838 5835 5833 5831 5829 5827 5826 5824 5821 5818 5816 5813 5811 5808 5805 5803 5800 5797 5794 5791 5788 5785 5783 5780 5777
5854 5856 5857 5859 5860 5861 5862 5863 5863 5864 5864 5864 5865 5865 5866 5867 5867 5867 5867 5868 5868 5869 5869 5869 5870 5870 5869 5869 5870 5870 5870 5870 5870 5870 5869 5868 5866 5865 5864 5864 5866 5867 5866 5865 5864 5863 5862 5861 5860 5859 5857 5855 5853 5851 5848 5846 5844 5841 5839 5836 5833 5831 5829 5827 5825 5823 5821 5819 5817 5814 5811 5809 5806 5803 5801 5798 5795 5792 5789 5786 5782 5780 5777 5774 5771
5851 5852 5853 5855 5856 5857 5858 5858 5859 5860 5860 5860 5861 5861 5862 5862 5862 5862 5863 5864 5865 5865 5866 5866 5866 5866 5865 5865 5866 5866 5865 5865 5865 5865 5864 5864 5862 5861 5859 5859 5861 5863 5863 5863 5861 5859 5858 5857 5856 5855 5854 5852 5849 5846 5844 5842 5839 5837 5835 5832 5829 5827 5824 5822 5821 5819 5817 5814 5812 5809 5807 5804 5801 5798 5795 5792 5789 5786 5783 5780 5777 5774 5771 5768 5765
5848 5849 5850 5850 5851 5852 5853 5854 5854 5855 5856 5856 5856 5856 5857 5858 5858 5858 5858 5859 5860 5861 5861 5862 5862 5862 5861 5861 5861 5860 5860 5860 5861 5860 5860 5859 5858 5857 5855 5855 5856 5857 5858 5859 5857 5855 5854 5853 5852 5851 5849 5847 5845 5841 5839 5838 5835 5832 5830 5827 5825 5822 5820 5818 5817 5814 5812 5809 5807 5804 5802 5799 5796 5793 5790 5787 5784 5781 5778 5775 5772 5769 5766 5763 5760
5844 5845 5846 5845 5845 5846 5848 5848 5849 5850 5851 5851 5851 5851 5851 5852 5852 5853 5853 5854 5855 5855 5856 5857 5857 5858 5857 5857 5856 5855 5855 5855 5856 5856 5855 5855 5854 5853 5851 5851 5852 5852 5852 5853 5852 5851 5849 5849 5848 5846 5844 5842 5839 5837 5835 5833 5831 5828 5825 5823 5820 5818 5816 5814 5813 5810 5807 5805 5802 5800 5797 5794 5791 5788 5785 5782 5779 5776 5773 5770 5767 5764 5761 5759 5756
5839 5840 5840 5840 5840 5841 5841 5842 5844 5845 5846 5846 5845 5845 5846 5846 5847 5847 5847 5848 5848 5849 5850 5851 5852 5852 5852 5851 5851 5851 5850 5850 5851 5850 5850 5850 5850 5849 5847 5846 5848 5848 5847 5848 5848 5846 5845 5845 5843 5841 5839 5837 5834 5832 5831 5829 5826 5823 5821 5819 5816 5814 5812 5810 5808 5805 5803 5800 5798 5795 5792 5789 5786 5783 5780 5777 5774 5771 5768 5765 5763 5760 5757 5754 5752
5833 5834 5834 5835 5836 5836 5836 5837 5838 5840 5841 5841 5840 5840 5841 5841 5841 5841 5841 5841 5842 5843 5844 5844 5845 5846 5846 5846 5846 5846 5845 5845 5846 5846 5846 5846 5845 5844 5841 5839 5841 5844 5845 5844 5843 5842 5841 5840 5838 5836 5834 5832 5830 5828 5826 5824 5822 5819 5816 5815 5812 5810 5808 5806 5803 5801 5798 5796 5793 5791 5787 5784 5781 5778 5775 5772 5769 5767 5764 5761 5758 5755 5753 5750 5747
5827 5827 5828 5829 5830 5831 5832 5833 5833 5834 5835 5835 5835 5835 5835 5834 5835 5835 5835 5835 5835 5836 5837 5837 5838 5839 5840 5840 5840 5840 5840 5840 5840 5840 5841 5841 5840 5840 5837 5833 5832 5835 5838 5839 5838 5838 5836 5834 5833 5831 5829 5827 5825 5824 5822 5819 5817 5814 5812 5810 5808 5806 5803 5801 5799 5796 5794 5792 5789 5786 5783 5780 5776 5773 5771 5768 5765 5763 5760 5757 5754 5752 5749 5746 5743
5822 5822 5822 5823 5824 5825 5826 5826 5827 5827 5828 5828 5828 5829 5828 5828 5828 5829 5829 5828 5828 5828 5830 5830 5830 5831 5832 5833 5833 5833 5834 5835 5835 5834 5835 5836 5835 5834 5835 5831 5826 5826 5830 5833 5833 5832 5830 5829 5827 5825 5824 5822 5821 5819 5817 5815 5812 5810 5808 5805 5804 5802 5800 5797 5795 5792 5790 5788 5785 5782 5778 5775 5772 5769 5766 5764 5761 5759 5756 5754 5751 5749 5746 5743 5739
5816 5817 5817 5818 5818 5819 5819 5819 5820 5820 5821 5821 5820 5821 5821 5822 5821 5822 5822 5821 5820 5821 5822 5822 5823 5823 5825 5826 5826 5826 5826 5827 5828 5828 5829 5830 5829 5829 5830 5829 5825 5823 5825 5826 5827 5826 5824 5823 5822 5820 5819 5818 5816 5814 5812 5810 5807 5805 5803 5801 5799 5798 5796 5793 5791 5789 5787 5784 5781 5777 5774 5771 5768 5765 5763 5760 5758 5755 5753 5750 5748 5745 5742 5739 5735
5809 5810 5811 5811 5812 5812 5811 5811 5811 5812 5812 5812 5812 5813 5813 5813 5813 5814 5814 5813 5813 5813 5814 5814 5815 5815 5817 5818 5818 5818 5818 5820 5820 5822 5823 5823 5824 5825 5825 5823 5822 5822 5822 5822 5821 5820 5819 5818 5817 5816 5814 5813 5811 5809 5807 5805 5803 5801 5799 5797 5795 5793 5791 5789 5787 5785 5783 5780 5777 5774 5770 5767 5764 5762 5759 5757 5754 5752 5750 5747 5744 5742 5739 5736 5732
5803 5803 5804 5804 5805 5804 5804 5804 5804 5804 5803 5803 5804 5804 5804 5803 5803 5804 5804 5805 5806 5805 5805 5805 5807 5808 5809 5810 5810 5810 5810 5811 5812 5813 5815 5816 5817 5818 5818 5817 5817 5817 5817 5817 5816 5815 5814 5813 5812 5811 5810 5809 5806 5805 5803 5801 5799 5797 5795 5793 5792 5790 5788 5785 5783 5781 5779 5776 5773 5770 5767 5764 5761 5759 5756 5753 5751 5749 5747 5744 5741 5739 5736 5733 5729
5797 5798 5798 5799 5798 5798 5798 5798 5798 5797 5796 5795 5795 5795 5795 5794 5794 5794 5795 5796 5797 5797 5796 5796 5798 5801 5801 5799 5800 5801 5801 5802 5803 5804 5805 5808 5810 5811 5811 5811 5810 5811 5811 5811 5811 5810 5809 5809 5807 5806 5805 5804 5802 5800 5798 5796 5795 5793 5791 5789 5788 5786 5784 5782 5780 5778 5775 5772 5769 5766 5763 5760 5757 5755 5752 5750 5748 5746 5744 5741 5739 5736 5733 5730 5726
5792 5792 5793 5792 5792 5791 5791 5791 5790 5790 5789 5788 5787 5786 5786 5784 5783 5784 5784 5785 5786 5788 5788 5786 5787 5790 5790 5788 5790 5791 5790 5791 5792 5793 5794 5797 5800 5802 5804 5803 5802 5804 5805 5805 5805 5805 5804 5803 5802 5801 5800 5798 5797 5795 5793 5792 5790 5788 5787 5785 5784 5782 5780 5778 5776 5774 5771 5768 5765 5762 5759 5756 5754 5751 5749 5747 5745 5743 5740 5738 5736 5733 5730 5727 5723
5785 5786 5786 5785 5784 5784 5783 5782 5782 5781 5779 5779 5777 5776 5776 5775 5773 5773 5774 5775 5776 5777 5778 5778 5778 5779 5779 5779 5780 5780 5779 5781 5781 5780 5781 5786 5790 5792 5793 5795 5796 5797 5799 5800 5799 5798 5798 5797 5796 5796 5795 5793 5792 5790 5788 5787 5785 5783 5782 5781 5779 5778 5776 5774 5772 5770 5767 5764 5761 5757 5755 5752 5750 5748 5746 5743 5741 5739 5737 5735 5733 5730 5727 5724 5720
5779 5780 5779 5778 5778 5777 5776 5775 5774 5772 5770 5769 5766 5765 5765 5764 5762 5762 5762 5764 5765 5766 5767 5769 5769 5770 5771 5771 5770 5771 5773 5775 5775 5773 5772 5774 5779 5783 5785 5787 5790 5792 5792 5793 5792 5791 5791 5790 5790 5789 5789 5788 5786 5785 5783 5781 5780 5779 5778 5777 5775 5773 5772 5770 5768 5765 5762 5759 5756 5753 5751 5748 5746 5744 5742 5740 5737 5736 5734 5732 5730 5727 5724 5721 5717
5772 5772 5771 5770 5770 5770 5770 5769 5767 5765 5763 5760 5758 5757 5755 5752 5751 5750 5749 5750 5752 5753 5754 5756 5758 5762 5764 5762 5761 5765 5770 5771 5770 5770 5769 5766 5769 5776 5780 5781 5783 5784 5785 5786 5786 5784 5784 5784 5783 5784 5784 5782 5780 5779 5778 5776 5775 5774 5773 5772 5771 5769 5768 5766 5764 5761 5758 5755 5752 5749 5747 5745 5743 5740 5738 5736 5734 5732 5731 5729 5727 5724 5721 5717 5714
5764 5764 5763 5762 5762 5762 5762 5760 5758 5755 5753 5752 5751 5748 5743 5737 5733 5731 5732 5735 5737 5736 5736 5738 5744 5751 5753 5750 5751 5758 5762 5763 5763 5766 5766 5763 5762 5766 5771 5774 5775 5777 5778 5778 5778 5778 5777 5778 5778 5778 5778 5776 5775 5774 5772 5771 5771 5770 5769 5768 5766 5765 5763 5761 5759 5756 5754 5751 5748 5745 5743 5741 5739 5737 5734 5733 5731 5729 5728 5726 5723 5721 5717 5714 5711
5757 5756 5756 5755 5755 5755 5754 5751 5749 5746 5743 5743 5741 5736 5728 5720 5713 5709 5710 5712 5711 5710 5715 5723 5730 5735 5736 5737 5742 5750 5753 5754 5758 5759 5759 5758 5757 5759 5764 5768 5768 5769 5771 5771 5771 5771 5772 5772 5773 5773 5772 5771 5769 5768 5767 5767 5766 5766 5764 5763 5762 5760 5759 5757 5755 5752 5749 5747 5744 5742 5739 5737 5735 5733 5731 5730 5728 5726 5725 5723 5720 5718 5715 5711 5708
5749 5749 5748 5748 5748 5748 5746 5743 5740 5737 5734 5733 5728 5722 5714 5706 5698 5692 5688 5687 5685 5687 5697 5709 5717 5721 5724 5728 5734 5742 5745 5747 5749 5749 5750 5752 5755 5756 5760 5763 5763 5763 5764 5764 5765 5766 5766 5766 5767 5766 5765 5765 5763 5762 5762 5762 5761 5761 5760 5758 5757 5756 5754 5752 5750 5748 5745 5742 5740 5737 5735 5733 5731 5729 5728 5727 5725 5723 5722 5720 5718 5715 5712 5709 5705
5742 5742 5742 5741 5741 5740 5738 5736 5733 5729 5727 5724 5719 5712 5705 5699 5691 5677 5665 5669 5678 5680 5686 5701 5708 5704 5708 5719 5726 5730 5735 5736 5737 5739 5742 5746 5750 5753 5755 5757 5757 5758 5758 5759 5759 5760 5760 5761 5761 5761 5759 5758 5758 5757 5757 5757 5756 5755 5754 5753 5753 5752 5750 5748 5746 5743 5740 5738 5736 5733 5731 5729 5727 5726 5725 5724 5722 5720 5719 5717 5715 5712 5709 5706 5703
5736 5736 5736 5735 5735 5733 5731 5729 5726 5722 5718 5715 5711 5706 5698 5693 5689 5675 5662 5670 5681 5676 5678 5695 5692 5670 5672 5698 5715 5719 5722 5725 5726 5731 5737 5741 5745 5747 5748 5750 5751 5752 5752 5753 5754 5754 5755 5755 5755 5755 5753 5752 5752 5752 5752 5752 5751 5750 5749 5748 5748 5747 5745 5743 5741 5738 5736 5734 5731 5729 5727 5725 5724 5723 5722 5720 5719 5718 5716 5714 5712 5710 5707 5704 5700
5729 5729 5729 5728 5728 5727 5724 5722 5719 5715 5711 5706 5704 5703 5696 5687 5685 5682 5678 5682 5685 5677 5680 5694 5686 5661 5664 5691 5707 5710 5713 5717 5722 5729 5734 5737 5739 5740 5741 5743 5746 5746 5747 5748 5748 5749 5749 5749 5749 5748 5747 5747 5747 5747 5747 5746 5745 5744 5744 5743 5743 5741 5740 5738 5736 5734 5731 5729 5727 5725 5724 5722 5721 5720 5719 5718 5716 5715 5713 5712 5709 5707 5704 5701 5698
5721 5722 5722 5722 5722 5721 5719 5717 5714 5710 5706 5701 5698 5699 5697 5689 5684 5684 5685 5687 5688 5687 5691 5694 5686 5677 5685 5700 5707 5709 5712 5716 5721 5727 5730 5732 5733 5734 5735 5738 5740 5740 5740 5741 5742 5742 5743 5743 5743 5742 5741 5742 5742 5742 5741 5740 5739 5739 5739 5738 5737 5736 5735 5733 5731 5729 5727 5725 5723 5721 5720 5719 5718 5717 5716 5715 5713 5712 5711 5709 5707 5704 5702 5699 5695
5714 5714 5715 5715 5716 5715 5714 5712 5710 5706 5702 5698 5695 5694 5695 5693 5688 5686 5687 5688 5688 5690 5692 5690 5687 5690 5698 5705 5709 5713 5714 5715 5719 5723 5724 5726 5728 5729 5730 5733 5733 5733 5734 5735 5735 5736 5736 5736 5737 5736 5736 5737 5737 5736 5736 5735 5734 5734 5733 5732 5732 5731 5730 5728 5727 5725 5722 5721 5719 5718 5717 5716 5715 5714 5713 5711 5710 5709 5708 5707 5704 5702 5699 5696 5693
5707 5708 5708 5709 5710 5710 5709 5708 5707 5704 5700 5697 5694 5692 5692 5692 5690 5688 5688 5690 5691 5692 5693 5695 5699 5704 5707 5707 5709 5712 5712 5714 5717 5719 5720 5722 5724 5723 5725 5726 5726 5726 5727 5728 5729 5730 5730 5730 5730 5730 5730 5731 5731 5730 5730 5730 5729 5729 5728 5727 5727 5726 5725 5724 5722 5720 5718 5717 5716 5715 5714 5713 5712 5711 5710 5708 5707 5706 5705 5704 5702 5699 5697 5694 5691
5701 5701 5702 5703 5703 5704 5704 5703 5703 5701 5699 5696 5693 5691 5689 5690 5690 5689 5688 5689 5691 5693 5696 5699 5703 5706 5707 5706 5708 5709 5710 5712 5713 5714 5715 5717 5718 5718 5719 5719 5719 5720 5721 5721 5722 5723 5723 5723 5724 5724 5724 5725 5725 5725 5725 5724 5724 5723 5722 5722 5722 5721 5720 5719 5718 5716 5715 5714 5713 5712 5711 5710 5709 5708 5706 5705 5704 5703 5702 5701 5699 5696 5694 5692 5689
5695 5695 5696 5697 5697 5698 5699 5699 5698 5697 5696 5694 5692 5690 5689 5688 5687 5687 5688 5688 5689 5691 5693 5696 5698 5700 5702 5703 5704 5705 5706 5707 5708 5709 5710 5712 5712 5713 5713 5713 5713 5714 5714 5714 5715 5715 5716 5717 5717 5718 5718 5719 5719 5719 5719 5719 5718 5718 5717 5717 5717 5716 5715 5715 5714 5712 5711 5710 5709 5708 5707 5706 5706 5705 5703 5702 5701 5700 5699 5698 5696 5694 5691 5689 5687
5690 5689 5690 5691 5692 5692 5692 5693 5693 5693 5692 5691 5690 5689 5688 5686 5685 5685 5686 5686 5687 5688 5689 5691 5693 5694 5696 5697 5699 5700 5701 5702 5702 5703 5704 5705 5706 5706 5706 5706 5707 5707 5707 5707 5708 5708 5709 5710 5711 5712 5713 5713 5713 5714 5714 5713 5713 5712 5712 5712 5712 5712 5711 5710 5709 5708 5707 5706 5705 5704 5704 5703 5702 5701 5700 5699 5698 5697 5696 5695 5693 5691 5689 5687 5684
5685 5685 5684 5684 5685 5686 5686 5687 5687 5688 5687 5687 5686 5685 5685 5684 5684 5684 5683 5683 5684 5684 5685 5686 5688 5689 5690 5691 5692 5693 5694 5695 5696 5697 5697 5698 5699 5699 5699 5700 5700 5700 5700 5700 5701 5702 5703 5704 5705 5706 5707 5707 5708 5708 5708 5708 5708 5707 5707 5707 5707 5707 5706 5706 5705 5704 5703 5702 5701 5701 5700 5699 5698 5697 5696 5695 5695 5694 5693 5692 5690 5688 5687 5685 5682
5680 5681 5680 5678 5678 5679 5679 5680 5681 5681 5681 5681 5682 5682 5682 5681 5681 5681 5680 5680 5680 5680 5681 5682 5682 5683 5684 5685 5686 5687 5688 5689 5689 5690 5690 5691 5691 5691 5692 5692 5692 5693 5693 5694 5695 5696 5697 5698 5699 5700 5701 5701 5702 5702 5702 5703 5703 5702 5701 5702 5702 5702 5702 5701 5700 5700 5699 5698 5698 5697 5697 5696 5695 5694 5692 5692 5691 5691 5690 5689 5687 5686 5684 5682 5680
5674 5675 5674 5673 5672 5673 5673 5673 5674 5674 5675 5677 5677 5677 5677 5678 5678 5677 5676 5676 5676 5676 5677 5677 5677 5678 5679 5680 5681 5681 5681 5682 5682 5683 5683 5683 5684 5684 5684 5684 5685 5686 5687 5688 5689 5690 5691 5692 5693 5694 5695 5695 5696 5696 5697 5697 5697 5696 5696 5696 5697 5697 5697 5697 5696 5695 5695 5695 5694 5694 5693 5692 5691 5690 5689 5688 5688 5687 5687 5686 5684 5683 5681 5679 5678
5668 5668 5669 5669 5668 5668 5668 5669 5669 5669 5670 5672 5672 5672 5673 5674 5674 5673 5672 5673 5673 5672 5672 5672 5673 5673 5674 5674 5675 5675 5675 5675 5675 5676 5676 5676 5676 5677 5677 5678 5679 5680 5681 5683 5684 5685 5686 5686 5687 5688 5689 5689 5690 5691 5692 5692 5692 5691 5691 5691 5692 5692 5692 5692 5691 5691 5691 5691 5691 5690 5689 5688 5687 5686 5685 5685 5684 5684 5684 5683 5681 5680 5678 5677 5675
5663 5663 5664 5664 5664 5664 5664 5664 5665 5664 5665 5666 5667 5668 5669 5671 5671 5670 5669 5668 5668 5667 5668 5668 5668 5668 5668 5669 5669 5669 5669 5669 5669 5669 5669 5669 5670 5671 5672 5673 5674 5675 5676 5677 5678 5679 5680 5681 5682 5683 5683 5684 5685 5686 5686 5686 5686 5686 5687 5687 5687 5687 5687 5687 5687 5687 5687 5687 5687 5686 5685 5684 5683 5682 5682 5681 5681 5681 5680 5679 5678 5677 5675 5674 5672
5659 5659 5659 5659 5659 5659 5660 5660 5660 5660 5660 5661 5661 5662 5664 5665 5666 5667 5667 5665 5663 5664 5665 5664 5663 5663 5663 5663 5663 5663 5663 5664 5664 5664 5664 5664 5665 5666 5667 5668 5669 5670 5671 5672 5673 5674 5675 5676 5677 5677 5678 5679 5680 5681 5681 5681 5682 5682 5682 5682 5682 5682 5682 5683 5683 5683 5683 5683 5682 5682 5681 5680 5679 5678 5678 5677 5677 5677 5677 5676 5675 5674 5672 5671 5669
5655 5655 5655 5655 5655 5655 5655 5655 5655 5655 5655 5655 5656 5657 5658 5659 5660 5662 5663 5663 5662 5662 5662 5660 5659 5659 5659 5658 5658 5659 5659 5659 5659 5659 5659 5660 5661 5662 5662 5663 5664 5665 5667 5668 5669 5669 5670 5671 5671 5672 5672 5673 5674 5675 5676 5676 5677 5677 5677 5677 5677 5677 5678 5678 5679 5679 5678 5678 5678 5677 5677 5676 5675 5674 5674 5673 5673 5673 5673 5672 5671 5670 5669 5668 5666